Weather History for Moriarty, NM

Change the Weather History Date:

Thursday, September 26, 2013

  Actual Average (KABQ) Record (KABQ)
Temperature  
Mean Temperature 60 °F 65 °F  
Max Temperature 77 °F 77 °F 90 °F (1953)
Min Temperature 43 °F 54 °F 31 °F (1912)
Degree Days  
Heating Degree Days 5 2  
Month to date heating degree days 16  
Since 1 July heating degree days 16  
Cooling Degree Days 0 2  
Month to date cooling degree days 149  
Year to date cooling degree days 1306  
Growing Degree Days 10 (Base 50)    
Moisture  
Dew Point 39 °F    
Average Humidity 52    
Maximum Humidity 88    
Minimum Humidity 21    
Precipitation  
Precipitation 0.00 in 0.04 in 1.19 in (1936)
Month to date precipitation 0.93  
Year to date precipitation 7.21  
Snow  
Snow 0.00 in - - ()
Month to date snowfall  
Since 1 July snowfall  
Since 1 September snowfall  
Snow Depth -    
Sea Level Pressure  
Sea Level Pressure 29.96 in    
Wind  
Wind Speed 8 mph (South)    
Max Wind Speed 24 mph    
Max Gust Speed 32 mph    
Visibility 10 miles    
Events      
T = Trace of Precipitation, MM = Missing Value Source: NWS Daily Summary

Daily Weather History Graph

Daily Weather History Graph

Search for Another Location

Airport:

Trip Planner

Search our weather history database for the weather conditions in past years. The results will help you decide how hot, cold, wet, or windy it might be!

Date:

Astronomy

Sep. 26, 2013 Rise Set
Actual Time 6:55 AM MDT 6:54 PM MDT
Civil Twilight 6:30 AM MDT 7:19 PM MDT
Nautical Twilight 6:00 AM MDT 7:49 PM MDT
Astronomical Twilight 5:30 AM MDT 8:18 PM MDT
Moon No Moon Rise 1:37 PM MDT (9/26)
Length of Visible Light 12h 49m
Length of Day
11h 59m
Waning Gibbous, 54% of the Moon is Illuminated
Sep 26
Waning Gibbous
Sep 26
Last Quarter
Oct 4
New
Oct 11
First Quarter
Oct 18
Full

Hourly Weather History & Observations

Time (MDT) Temp. Windchill Dew Point Humidity Pressure Visibility Wind Dir Wind Speed Gust Speed Precip Events Conditions
12:15 AM 51.8 °F - 42.6 °F 71% 29.94 in 10.0 mi ESE 3.5 mph - N/A   Clear
12:35 AM 51.4 °F - 41.9 °F 70% 29.93 in 10.0 mi Calm Calm - N/A   Clear
12:55 AM 48.9 °F - 42.1 °F 77% 29.93 in 10.0 mi Calm Calm - N/A   Clear
1:15 AM 46.0 °F 43.9 °F 41.7 °F 85% 29.94 in 10.0 mi NNE 4.6 mph - N/A   Clear
1:35 AM 47.3 °F - 42.1 °F 82% 29.94 in 10.0 mi ENE 3.5 mph - N/A   Clear
1:55 AM 45.7 °F 44.4 °F 41.9 °F 87% 29.95 in 10.0 mi ENE 3.5 mph - N/A   Clear
2:15 AM 45.9 °F - 41.9 °F 86% 29.95 in 10.0 mi Calm Calm - N/A   Clear
2:35 AM 45.0 °F 41.8 °F 41.4 °F 87% 29.95 in 10.0 mi North 5.8 mph - N/A   Clear
2:55 AM 44.4 °F 41.2 °F 41.0 °F 88% 29.94 in 10.0 mi North 5.8 mph - N/A   Clear
3:15 AM 44.8 °F 43.3 °F 41.2 °F 87% 29.94 in 10.0 mi North 3.5 mph - N/A   Clear
3:35 AM 44.6 °F 42.2 °F 40.8 °F 87% 29.94 in 10.0 mi NNE 4.6 mph - N/A   Clear
3:55 AM 46.2 °F 45.0 °F 41.0 °F 82% 29.94 in 10.0 mi North 3.5 mph - N/A   Clear
4:15 AM 47.3 °F - 41.2 °F 79% 29.94 in 10.0 mi Calm Calm - N/A   Clear
4:35 AM 44.8 °F 42.4 °F 40.3 °F 84% 29.94 in 10.0 mi NNW 4.6 mph - N/A   Clear
4:55 AM 43.9 °F - 40.5 °F 88% 29.95 in 10.0 mi Calm Calm - N/A   Clear
5:15 AM 45.3 °F 41.6 °F 40.8 °F 84% 29.95 in 10.0 mi SSE 6.9 mph - N/A   Clear
5:35 AM 47.8 °F - 40.6 °F 76% 29.95 in 10.0 mi Calm Calm - N/A   Clear
5:55 AM 45.5 °F 43.2 °F 40.1 °F 81% 29.96 in 10.0 mi SSE 4.6 mph - N/A   Clear
6:15 AM 46.8 °F - 40.5 °F 79% 29.96 in 10.0 mi Calm Calm - N/A   Clear
6:55 AM 45.5 °F 41.8 °F 40.3 °F 82% 29.98 in 10.0 mi South 6.9 mph - N/A   Clear
7:15 AM 47.7 °F - 41.2 °F 78% 29.98 in 10.0 mi SSE 6.9 mph - N/A   Clear
7:35 AM 48.9 °F - 42.1 °F 77% 29.99 in 10.0 mi SSW 3.5 mph - N/A   Clear
7:55 AM 50.0 °F - 42.6 °F 76% 29.99 in 10.0 mi SSW 3.5 mph - N/A   Clear
8:15 AM 53.2 °F - 44.1 °F 71% 30.00 in 10.0 mi South 5.8 mph - N/A   Clear
8:35 AM 57.4 °F - 43.3 °F 59% 30.00 in 10.0 mi SSE 6.9 mph - N/A   Clear
8:55 AM 59.7 °F - 41.4 °F 51% 30.01 in 10.0 mi South 8.1 mph - N/A   Clear
9:15 AM 62.1 °F - 41.9 °F 48% 30.01 in 10.0 mi SSE 5.8 mph - N/A   Clear
9:35 AM 63.7 °F - 42.1 °F 45% 30.01 in 10.0 mi SSE 4.6 mph - N/A   Clear
9:55 AM 65.3 °F - 40.1 °F 40% 30.01 in 10.0 mi SSE 6.9 mph - N/A   Clear
10:15 AM 67.1 °F - 40.1 °F 37% 30.01 in 10.0 mi SSW 8.1 mph - N/A   Clear
10:35 AM 69.1 °F - 40.1 °F 35% 30.01 in 10.0 mi SW 3.5 mph - N/A   Clear
10:55 AM 72.0 °F - 36.7 °F 28% 29.99 in 10.0 mi SSW 16.1 mph - N/A   Clear
11:15 AM 73.8 °F - 36.0 °F 25% 29.99 in 10.0 mi SW 18.4 mph - N/A   Clear
11:35 AM 74.7 °F - 35.6 °F 24% 29.99 in 10.0 mi SW 20.7 mph 26.5 mph N/A   Clear
11:55 AM 75.2 °F - 33.3 °F 22% 29.99 in 10.0 mi SW 23.0 mph 27.6 mph N/A   Clear
12:15 PM 75.9 °F - 33.6 °F 21% 29.98 in 10.0 mi SW 23.0 mph 27.6 mph N/A   Clear
12:35 PM 75.6 °F - 34.0 °F 22% 29.98 in 10.0 mi SW 17.3 mph - N/A   Clear
12:55 PM 75.7 °F - 34.9 °F 23% 29.98 in 10.0 mi SW 23.0 mph 29.9 mph N/A   Clear
1:15 PM 75.9 °F - 34.9 °F 22% 29.98 in 10.0 mi SW 19.6 mph 29.9 mph N/A   Clear
1:35 PM 76.1 °F - 34.9 °F 22% 29.96 in 10.0 mi WSW 21.9 mph 28.8 mph N/A   Clear
1:55 PM 76.3 °F - 35.2 °F 23% 29.96 in 10.0 mi SW 13.8 mph 24.2 mph N/A   Clear
2:15 PM 76.1 °F - 35.8 °F 23% 29.95 in 10.0 mi WSW 13.8 mph - N/A   Clear
2:35 PM 77.5 °F - 37.2 °F 23% 29.94 in 10.0 mi SW 18.4 mph 25.3 mph N/A   Scattered Clouds
2:55 PM 77.0 °F - 36.5 °F 23% 29.94 in 10.0 mi SSW 19.6 mph 28.8 mph N/A   Clear
3:15 PM 76.1 °F - 37.0 °F 24% 29.94 in 10.0 mi South 17.3 mph - N/A   Scattered Clouds
3:35 PM 75.7 °F - 37.0 °F 25% 29.93 in 10.0 mi South 17.3 mph 27.6 mph N/A   Scattered Clouds
3:55 PM 75.6 °F - 37.4 °F 25% 29.93 in 10.0 mi South 13.8 mph 25.3 mph N/A   Scattered Clouds
4:15 PM 77.2 °F - 37.0 °F 23% 29.92 in 10.0 mi South 23.0 mph 27.6 mph N/A   Scattered Clouds
4:35 PM 76.1 °F - 37.2 °F 24% 29.92 in 10.0 mi South 23.0 mph 29.9 mph N/A   Scattered Clouds
4:55 PM 75.6 °F - 37.6 °F 25% 29.92 in 10.0 mi South 21.9 mph 27.6 mph N/A   Clear
5:15 PM 74.5 °F - 36.7 °F 25% 29.92 in 10.0 mi South 24.2 mph 32.2 mph N/A   Clear
5:35 PM 73.8 °F - 37.4 °F 27% 29.93 in 10.0 mi South 24.2 mph 28.8 mph N/A   Clear
5:55 PM 72.9 °F - 38.1 °F 28% 29.92 in 10.0 mi South 18.4 mph 25.3 mph N/A   Clear
6:15 PM 71.4 °F - 38.8 °F 31% 29.92 in 10.0 mi South 16.1 mph 24.2 mph N/A   Clear
6:35 PM 69.3 °F - 39.0 °F 33% 29.93 in 10.0 mi South 15.0 mph - N/A   Clear
6:55 PM 67.5 °F - 39.2 °F 36% 29.93 in 10.0 mi South 15.0 mph - N/A   Clear
7:15 PM 65.5 °F - 39.4 °F 38% 29.93 in 10.0 mi South 16.1 mph - N/A   Clear
7:35 PM 63.9 °F - 39.4 °F 41% 29.94 in 10.0 mi South 15.0 mph - N/A   Clear
7:55 PM 63.0 °F - 39.2 °F 42% 29.95 in 10.0 mi South 12.7 mph - N/A   Clear
8:15 PM 61.3 °F - 39.6 °F 45% 29.96 in 10.0 mi South 10.4 mph - N/A   Clear
8:35 PM 58.3 °F - 40.6 °F 52% 29.96 in 10.0 mi South 8.1 mph - N/A   Clear
8:55 PM 58.3 °F - 40.1 °F 51% 29.97 in 10.0 mi South 10.4 mph - N/A   Clear
9:15 PM 59.0 °F - 39.4 °F 48% 29.98 in 10.0 mi South 10.4 mph - N/A   Clear
9:35 PM 57.6 °F - 39.7 °F 51% 29.98 in 10.0 mi SSE 4.6 mph - N/A   Clear
9:55 PM 53.1 °F - 40.5 °F 62% 29.98 in 10.0 mi Calm Calm - N/A   Clear
10:15 PM 52.3 °F - 41.2 °F 66% 29.98 in 10.0 mi Calm Calm - N/A   Clear
10:35 PM 51.3 °F - 41.0 °F 68% 29.98 in 10.0 mi South 3.5 mph - N/A   Clear
10:55 PM 56.3 °F - 40.1 °F 55% 29.99 in 10.0 mi South 10.4 mph - N/A   Clear
11:15 PM 55.4 °F - 40.3 °F 57% 29.99 in 10.0 mi South 10.4 mph - N/A   Clear
11:35 PM 52.9 °F - 40.8 °F 64% 29.99 in 10.0 mi South 6.9 mph - N/A   Clear
11:55 PM 52.7 °F - 41.4 °F 65% 29.99 in 10.0 mi SSE 8.1 mph - N/A   Scattered Clouds